Year,Month,Day,Hour,Minute,Value (Times are PST for temperature in C)
2014,08,13,00,00,22.20
2014,08,13,00,01,22.20
2014,08,13,00,02,22.20
2014,08,13,00,03,22.20
2014,08,13,00,04,22.20
2014,08,13,00,05,22.10
2014,08,13,00,06,22.10
2014,08,13,00,07,22.10
2014,08,13,00,08,22.10
2014,08,13,00,09,22.10
2014,08,13,00,10,22.10
2014,08,13,00,11,22.10
2014,08,13,00,12,22.10
2014,08,13,00,13,22.10
2014,08,13,00,14,22.10
2014,08,13,00,15,22.10
2014,08,13,00,16,22.10
2014,08,13,00,17,22.10
2014,08,13,00,18,22.10
2014,08,13,00,19,22.10
2014,08,13,00,20,22.10
2014,08,13,00,21,22.20
2014,08,13,00,22,22.20
2014,08,13,00,23,22.20
2014,08,13,00,24,22.20
2014,08,13,00,25,22.20
2014,08,13,00,26,22.20
2014,08,13,00,27,22.20
2014,08,13,00,28,22.10
2014,08,13,00,29,22.10
2014,08,13,00,30,22.10
2014,08,13,00,31,22.20
2014,08,13,00,32,22.20
2014,08,13,00,33,22.20
2014,08,13,00,34,22.30
2014,08,13,00,35,22.30
2014,08,13,00,36,22.30
2014,08,13,00,37,22.40
2014,08,13,00,38,22.40
2014,08,13,00,39,22.40
2014,08,13,00,40,22.40
2014,08,13,00,41,22.40
2014,08,13,00,42,22.50
2014,08,13,00,43,22.50
2014,08,13,00,44,22.40
2014,08,13,00,45,22.40
2014,08,13,00,46,22.40
2014,08,13,00,47,22.40
2014,08,13,00,48,22.40
2014,08,13,00,49,22.40
2014,08,13,00,50,22.30
2014,08,13,00,51,22.30
2014,08,13,00,52,22.20
2014,08,13,00,53,22.10
2014,08,13,00,54,22.00
2014,08,13,00,55,21.90
2014,08,13,00,56,21.80
2014,08,13,00,57,21.70
2014,08,13,00,58,21.50
2014,08,13,00,59,21.50
2014,08,13,01,00,21.40
2014,08,13,01,01,21.30
2014,08,13,01,02,21.20
2014,08,13,01,03,21.10
2014,08,13,01,04,21.00
2014,08,13,01,05,20.90
2014,08,13,01,06,20.80
2014,08,13,01,07,20.80
2014,08,13,01,08,20.70
2014,08,13,01,09,20.60
2014,08,13,01,10,20.50
2014,08,13,01,11,20.40
2014,08,13,01,12,20.40
2014,08,13,01,13,20.30
2014,08,13,01,14,20.30
2014,08,13,01,15,20.20
2014,08,13,01,16,20.20
2014,08,13,01,17,20.10
2014,08,13,01,18,20.10
2014,08,13,01,19,20.00
2014,08,13,01,20,19.90
2014,08,13,01,21,19.90
2014,08,13,01,22,19.80
2014,08,13,01,23,19.80
2014,08,13,01,24,19.70
2014,08,13,01,25,19.70
2014,08,13,01,26,19.60
2014,08,13,01,27,19.60
2014,08,13,01,28,19.50
2014,08,13,01,29,19.50
2014,08,13,01,30,19.50
2014,08,13,01,31,19.40
2014,08,13,01,32,19.40
2014,08,13,01,33,19.30
2014,08,13,01,34,19.30
2014,08,13,01,35,19.20
2014,08,13,01,36,19.20
2014,08,13,01,37,19.10
2014,08,13,01,38,19.10
2014,08,13,01,39,19.00
2014,08,13,01,40,18.90
2014,08,13,01,41,18.80
2014,08,13,01,42,18.80
2014,08,13,01,43,18.70
2014,08,13,01,44,18.70
2014,08,13,01,45,18.60
2014,08,13,01,46,18.60
2014,08,13,01,47,18.60
2014,08,13,01,48,18.60
2014,08,13,01,49,18.50
2014,08,13,01,50,18.50
2014,08,13,01,51,18.50
2014,08,13,01,52,18.40
2014,08,13,01,53,18.40
2014,08,13,01,54,18.40
2014,08,13,01,55,18.30
2014,08,13,01,56,18.30
2014,08,13,01,57,18.20
2014,08,13,01,58,18.10
2014,08,13,01,59,18.10
2014,08,13,02,00,18.00
2014,08,13,02,01,17.90
2014,08,13,02,02,17.80
2014,08,13,02,03,17.80
2014,08,13,02,04,17.70
2014,08,13,02,05,17.60
2014,08,13,02,06,17.60
2014,08,13,02,07,17.50
2014,08,13,02,08,17.40
2014,08,13,02,09,17.30
2014,08,13,02,10,17.20
2014,08,13,02,11,17.10
2014,08,13,02,12,17.00
2014,08,13,02,13,16.90
2014,08,13,02,14,16.80
2014,08,13,02,15,16.80
2014,08,13,02,16,16.70
2014,08,13,02,17,16.60
2014,08,13,02,18,16.60
2014,08,13,02,19,16.50
2014,08,13,02,20,16.50
2014,08,13,02,21,16.40
2014,08,13,02,22,16.40
2014,08,13,02,23,16.40
2014,08,13,02,24,16.40
2014,08,13,02,25,16.30
2014,08,13,02,26,16.30
2014,08,13,02,27,16.30
2014,08,13,02,28,16.20
2014,08,13,02,29,16.20
2014,08,13,02,30,16.20
2014,08,13,02,31,16.20
2014,08,13,02,32,16.20
2014,08,13,02,33,16.10
2014,08,13,02,34,16.10
2014,08,13,02,35,16.10
2014,08,13,02,36,16.10
2014,08,13,02,37,16.10
2014,08,13,02,38,16.00
2014,08,13,02,39,16.00
2014,08,13,02,40,16.00
2014,08,13,02,41,16.00
2014,08,13,02,42,16.00
2014,08,13,02,43,16.00
2014,08,13,02,44,16.00
2014,08,13,02,45,15.90
2014,08,13,02,46,15.90
2014,08,13,02,47,15.90
2014,08,13,02,48,15.90
2014,08,13,02,49,15.90
2014,08,13,02,50,15.90
2014,08,13,02,51,15.90
2014,08,13,02,52,16.00
2014,08,13,02,53,15.90
2014,08,13,02,54,16.00
2014,08,13,02,55,16.00
2014,08,13,02,56,16.00
2014,08,13,02,57,16.00
2014,08,13,02,58,16.00
2014,08,13,02,59,16.00
2014,08,13,03,00,16.00
2014,08,13,03,01,16.00
2014,08,13,03,02,16.00
2014,08,13,03,03,16.00
2014,08,13,03,04,16.00
2014,08,13,03,05,16.00
2014,08,13,03,06,16.00
2014,08,13,03,07,16.00
2014,08,13,03,08,16.00
2014,08,13,03,09,16.00
2014,08,13,03,10,16.10
2014,08,13,03,11,16.10
2014,08,13,03,12,16.10
2014,08,13,03,13,16.10
2014,08,13,03,14,16.10
2014,08,13,03,15,16.00
2014,08,13,03,16,16.00
2014,08,13,03,17,16.00
2014,08,13,03,18,16.00
2014,08,13,03,19,16.00
2014,08,13,03,20,15.90
2014,08,13,03,21,15.90
2014,08,13,03,22,15.90
2014,08,13,03,23,15.90
2014,08,13,03,24,15.90
2014,08,13,03,25,15.80
2014,08,13,03,26,15.80
2014,08,13,03,27,15.80
2014,08,13,03,28,15.80
2014,08,13,03,29,15.80
2014,08,13,03,30,15.80
2014,08,13,03,31,15.70
2014,08,13,03,32,15.70
2014,08,13,03,33,15.70
2014,08,13,03,34,15.70
2014,08,13,03,35,15.70
2014,08,13,03,36,15.70
2014,08,13,03,37,15.70
2014,08,13,03,38,15.60
2014,08,13,03,39,15.60
2014,08,13,03,40,15.60
2014,08,13,03,41,15.60
2014,08,13,03,42,15.60
2014,08,13,03,43,15.60
2014,08,13,03,44,15.60
2014,08,13,03,45,15.60
2014,08,13,03,46,15.50
2014,08,13,03,47,15.50
2014,08,13,03,48,15.50
2014,08,13,03,49,15.50
2014,08,13,03,50,15.50
2014,08,13,03,51,15.50
2014,08,13,03,52,15.50
2014,08,13,03,53,15.50
2014,08,13,03,54,15.50
2014,08,13,03,55,15.50
2014,08,13,03,56,15.50
2014,08,13,03,57,15.60
2014,08,13,03,58,15.50
2014,08,13,03,59,15.50
2014,08,13,04,00,15.50
2014,08,13,04,01,15.60
2014,08,13,04,02,15.60
2014,08,13,04,03,15.60
2014,08,13,04,04,15.60
2014,08,13,04,05,15.60
2014,08,13,04,06,15.60
2014,08,13,04,07,15.60
2014,08,13,04,08,15.60
2014,08,13,04,09,15.60
2014,08,13,04,10,15.60
2014,08,13,04,11,15.60
2014,08,13,04,12,15.60
2014,08,13,04,13,15.60
2014,08,13,04,14,15.60
2014,08,13,04,15,15.60
2014,08,13,04,16,15.60
2014,08,13,04,17,15.60
2014,08,13,04,18,15.60
2014,08,13,04,19,15.70
2014,08,13,04,20,15.70
2014,08,13,04,21,15.70
2014,08,13,04,22,15.70
2014,08,13,04,23,15.70
2014,08,13,04,24,15.70
2014,08,13,04,25,15.70
2014,08,13,04,26,15.70
2014,08,13,04,27,15.70
2014,08,13,04,28,15.70
2014,08,13,04,29,15.80
2014,08,13,04,30,15.80
2014,08,13,04,31,15.80
2014,08,13,04,32,15.80
2014,08,13,04,33,15.80
2014,08,13,04,34,15.80
2014,08,13,04,35,15.80
2014,08,13,04,36,15.90
2014,08,13,04,37,15.90
2014,08,13,04,38,16.00
2014,08,13,04,39,16.00
2014,08,13,04,40,16.10
2014,08,13,04,41,16.10
2014,08,13,04,42,16.20
2014,08,13,04,43,16.20
2014,08,13,04,44,16.30
2014,08,13,04,45,16.30
2014,08,13,04,46,16.30
2014,08,13,04,47,16.40
2014,08,13,04,48,16.40
2014,08,13,04,49,16.50
2014,08,13,04,50,16.50
2014,08,13,04,51,16.50
2014,08,13,04,52,16.60
2014,08,13,04,53,16.60
2014,08,13,04,54,16.60
2014,08,13,04,55,16.60
2014,08,13,04,56,16.60
2014,08,13,04,57,16.60
2014,08,13,04,58,16.60
2014,08,13,04,59,16.60
2014,08,13,05,00,16.60
2014,08,13,05,01,16.60
2014,08,13,05,02,16.60
2014,08,13,05,03,16.60
2014,08,13,05,04,16.70
2014,08,13,05,05,16.70
2014,08,13,05,06,16.70
2014,08,13,05,07,16.70
2014,08,13,05,08,16.70
2014,08,13,05,09,16.70
2014,08,13,05,10,16.70
2014,08,13,05,11,16.80
2014,08,13,05,12,16.80
2014,08,13,05,13,16.80
2014,08,13,05,14,16.80
2014,08,13,05,15,16.80
2014,08,13,05,16,16.80
2014,08,13,05,17,16.90
2014,08,13,05,18,16.90
2014,08,13,05,19,16.90
2014,08,13,05,20,16.90
2014,08,13,05,21,16.90
2014,08,13,05,22,16.90
2014,08,13,05,23,16.90
2014,08,13,05,24,16.90
2014,08,13,05,25,16.90
2014,08,13,05,26,16.80
2014,08,13,05,27,16.80
2014,08,13,05,28,16.80
2014,08,13,05,29,16.80
2014,08,13,05,30,16.80
2014,08,13,05,31,16.80
2014,08,13,05,32,16.70
2014,08,13,05,33,16.70
2014,08,13,05,34,16.70
2014,08,13,05,35,16.70
2014,08,13,05,36,16.70
2014,08,13,05,37,16.70
2014,08,13,05,38,16.70
2014,08,13,05,39,16.70
2014,08,13,05,40,16.70
2014,08,13,05,41,16.70
2014,08,13,05,42,16.80
2014,08,13,05,43,16.80
2014,08,13,05,44,16.80
2014,08,13,05,45,16.80
2014,08,13,05,46,16.80
2014,08,13,05,47,16.80
2014,08,13,05,48,16.80
2014,08,13,05,49,16.80
2014,08,13,05,50,16.70
2014,08,13,05,51,16.70
2014,08,13,05,52,16.70
2014,08,13,05,53,16.70
2014,08,13,05,54,16.60
2014,08,13,05,55,16.60
2014,08,13,05,56,16.60
2014,08,13,05,57,16.60
2014,08,13,05,58,16.60
2014,08,13,05,59,16.60
2014,08,13,06,00,16.60
2014,08,13,06,01,16.60
2014,08,13,06,02,16.60
2014,08,13,06,03,16.60
2014,08,13,06,04,16.50
2014,08,13,06,05,16.50
2014,08,13,06,06,16.50
2014,08,13,06,07,16.50
2014,08,13,06,08,16.50
2014,08,13,06,09,16.50
2014,08,13,06,10,16.50
2014,08,13,06,11,16.50
2014,08,13,06,12,16.50
2014,08,13,06,13,16.50
2014,08,13,06,14,16.50
2014,08,13,06,15,16.50
2014,08,13,06,16,16.50
2014,08,13,06,17,16.50
2014,08,13,06,18,16.50
2014,08,13,06,19,16.60
2014,08,13,06,20,16.60
2014,08,13,06,21,16.60
2014,08,13,06,22,16.60
2014,08,13,06,23,16.60
2014,08,13,06,24,16.60
2014,08,13,06,25,16.60
2014,08,13,06,26,16.60
2014,08,13,06,27,16.60
2014,08,13,06,28,16.60
2014,08,13,06,29,16.60
2014,08,13,06,30,16.70
2014,08,13,06,31,16.70
2014,08,13,06,32,16.70
2014,08,13,06,33,16.70
2014,08,13,06,34,16.70
2014,08,13,06,35,16.70
2014,08,13,06,36,16.80
2014,08,13,06,37,16.70
2014,08,13,06,38,16.70
2014,08,13,06,39,16.70
2014,08,13,06,40,16.70
2014,08,13,06,41,16.70
2014,08,13,06,42,16.70
2014,08,13,06,43,16.70
2014,08,13,06,44,16.70
2014,08,13,06,45,16.70
2014,08,13,06,46,16.70
2014,08,13,06,47,16.70
2014,08,13,06,48,16.70
2014,08,13,06,49,16.80
2014,08,13,06,50,16.80
2014,08,13,06,51,16.80
2014,08,13,06,52,16.80
2014,08,13,06,53,16.80
2014,08,13,06,54,16.80
2014,08,13,06,55,16.80
2014,08,13,06,56,16.80
2014,08,13,06,57,16.80
2014,08,13,06,58,16.70
2014,08,13,06,59,16.70
2014,08,13,07,00,16.70
2014,08,13,07,01,16.70
2014,08,13,07,02,16.70
2014,08,13,07,03,16.60
2014,08,13,07,04,16.60
2014,08,13,07,05,16.60
2014,08,13,07,06,16.60
2014,08,13,07,07,16.60
2014,08,13,07,08,16.60
2014,08,13,07,09,16.60
2014,08,13,07,10,16.60
2014,08,13,07,11,16.60
2014,08,13,07,12,16.60
2014,08,13,07,13,16.60
2014,08,13,07,14,16.60
2014,08,13,07,15,16.50
2014,08,13,07,16,16.50
2014,08,13,07,17,16.50
2014,08,13,07,18,16.50
2014,08,13,07,19,16.50
2014,08,13,07,20,16.50
2014,08,13,07,21,16.50
2014,08,13,07,22,16.50
2014,08,13,07,23,16.50
2014,08,13,07,24,16.50
2014,08,13,07,25,16.50
2014,08,13,07,26,16.50
2014,08,13,07,27,16.50
2014,08,13,07,28,16.50
2014,08,13,07,29,16.50
2014,08,13,07,30,16.50
2014,08,13,07,31,16.60
2014,08,13,07,32,16.60
2014,08,13,07,33,16.60
2014,08,13,07,34,16.60
2014,08,13,07,35,16.60
2014,08,13,07,36,16.60
2014,08,13,07,37,16.60
2014,08,13,07,38,16.70
2014,08,13,07,39,16.70
2014,08,13,07,40,16.70
2014,08,13,07,41,16.70
2014,08,13,07,42,16.70
2014,08,13,07,43,16.70
2014,08,13,07,44,16.70
2014,08,13,07,45,16.70
2014,08,13,07,46,16.70
2014,08,13,07,47,16.70
2014,08,13,07,48,16.70
2014,08,13,07,49,16.70
2014,08,13,07,50,16.70
2014,08,13,07,51,16.70
2014,08,13,07,52,16.70
2014,08,13,07,53,16.70
2014,08,13,07,54,16.60
2014,08,13,07,55,16.60
2014,08,13,07,56,16.60
2014,08,13,07,57,16.60
2014,08,13,07,58,16.60
2014,08,13,07,59,16.60
2014,08,13,08,00,16.60
2014,08,13,08,01,16.60
2014,08,13,08,02,16.60
2014,08,13,08,03,16.60
2014,08,13,08,04,16.60
2014,08,13,08,05,16.60
2014,08,13,08,06,16.60
2014,08,13,08,07,16.60
2014,08,13,08,08,16.60
2014,08,13,08,09,16.60
2014,08,13,08,10,16.60
2014,08,13,08,11,16.60
2014,08,13,08,12,16.60
2014,08,13,08,13,16.60
2014,08,13,08,14,16.60
2014,08,13,08,15,16.50
2014,08,13,08,16,16.50
2014,08,13,08,17,16.50
2014,08,13,08,18,16.50
2014,08,13,08,19,16.50
2014,08,13,08,20,16.50
2014,08,13,08,21,16.50
2014,08,13,08,22,16.40
2014,08,13,08,23,16.40
2014,08,13,08,24,16.40
2014,08,13,08,25,16.40
2014,08,13,08,26,16.40
2014,08,13,08,27,16.40
2014,08,13,08,28,16.50
2014,08,13,08,29,16.50
2014,08,13,08,30,16.50
2014,08,13,08,31,16.50
2014,08,13,08,32,16.60
2014,08,13,08,33,16.50
2014,08,13,08,34,16.50
2014,08,13,08,35,16.50
2014,08,13,08,36,16.50
2014,08,13,08,37,16.40
2014,08,13,08,38,16.40
2014,08,13,08,39,16.40
2014,08,13,08,40,16.40
2014,08,13,08,41,16.50
2014,08,13,08,42,16.50
2014,08,13,08,43,16.50
2014,08,13,08,44,16.50
2014,08,13,08,45,16.50
2014,08,13,08,46,16.60
2014,08,13,08,47,16.60
2014,08,13,08,48,16.60
2014,08,13,08,49,16.60
2014,08,13,08,50,16.60
2014,08,13,08,51,16.60
2014,08,13,08,52,16.60
2014,08,13,08,53,16.60
2014,08,13,08,54,16.60
2014,08,13,08,55,16.60
2014,08,13,08,56,16.60
2014,08,13,08,57,16.60
2014,08,13,08,58,16.60
2014,08,13,08,59,16.60
2014,08,13,09,00,16.60
2014,08,13,09,01,16.60
2014,08,13,09,02,16.60
2014,08,13,09,03,16.50
2014,08,13,09,04,16.50
2014,08,13,09,05,16.50
2014,08,13,09,06,16.50
2014,08,13,09,07,16.50
2014,08,13,09,08,16.50
2014,08,13,09,09,16.50
2014,08,13,09,10,16.50
2014,08,13,09,11,16.50
2014,08,13,09,12,16.50
2014,08,13,09,13,16.50
2014,08,13,09,14,16.60
2014,08,13,09,15,16.60
2014,08,13,09,16,16.60
2014,08,13,09,17,16.60
2014,08,13,09,18,16.60
2014,08,13,09,19,16.70
2014,08,13,09,20,16.70
2014,08,13,09,21,16.70
2014,08,13,09,22,16.70
2014,08,13,09,23,16.70
2014,08,13,09,24,16.70
2014,08,13,09,25,16.70
2014,08,13,09,26,16.70
2014,08,13,09,27,16.70
2014,08,13,09,28,16.60
2014,08,13,09,29,16.60
2014,08,13,09,30,16.60
2014,08,13,09,31,16.60
2014,08,13,09,32,16.60
2014,08,13,09,33,16.60
2014,08,13,09,34,16.50
2014,08,13,09,35,16.50
2014,08,13,09,36,16.50
2014,08,13,09,37,16.40
2014,08,13,09,38,16.40
2014,08,13,09,39,16.40
2014,08,13,09,40,16.40
2014,08,13,09,41,16.40
2014,08,13,09,42,16.40
2014,08,13,09,43,16.40
2014,08,13,09,44,16.40
2014,08,13,09,45,16.40
2014,08,13,09,46,16.40
2014,08,13,09,47,16.40
2014,08,13,09,48,16.40
2014,08,13,09,49,16.40
2014,08,13,09,50,16.40
2014,08,13,09,51,16.40
2014,08,13,09,52,16.40
2014,08,13,09,53,16.40
2014,08,13,09,54,16.40
2014,08,13,09,55,16.40
2014,08,13,09,56,16.40
2014,08,13,09,57,16.40
2014,08,13,09,58,16.40
2014,08,13,09,59,16.40
2014,08,13,10,00,16.40
2014,08,13,10,01,16.40
2014,08,13,10,02,16.40
2014,08,13,10,03,16.40
2014,08,13,10,04,16.50
2014,08,13,10,05,16.50
2014,08,13,10,06,16.50
2014,08,13,10,07,16.50
2014,08,13,10,08,16.50
2014,08,13,10,09,16.60
2014,08,13,10,10,16.60
2014,08,13,10,11,16.60
2014,08,13,10,12,16.60
2014,08,13,10,13,16.60
2014,08,13,10,14,16.60
2014,08,13,10,15,16.70
2014,08,13,10,16,16.70
2014,08,13,10,17,16.70
2014,08,13,10,18,16.70
2014,08,13,10,19,16.70
2014,08,13,10,20,16.80
2014,08,13,10,21,16.80
2014,08,13,10,22,16.80
2014,08,13,10,23,16.80
2014,08,13,10,24,16.80
2014,08,13,10,25,16.80
2014,08,13,10,26,16.80
2014,08,13,10,27,16.80
2014,08,13,10,28,16.80
2014,08,13,10,29,16.80
2014,08,13,10,30,16.80
2014,08,13,10,31,16.80
2014,08,13,10,32,16.80
2014,08,13,10,33,16.80
2014,08,13,10,34,16.80
2014,08,13,10,35,16.80
2014,08,13,10,36,16.80
2014,08,13,10,37,16.80
2014,08,13,10,38,16.80
2014,08,13,10,39,16.80
2014,08,13,10,40,16.80
2014,08,13,10,41,16.80
2014,08,13,10,42,16.80
2014,08,13,10,43,16.80
2014,08,13,10,44,16.80
2014,08,13,10,45,16.80
2014,08,13,10,46,16.90
2014,08,13,10,47,16.90
2014,08,13,10,48,16.90
2014,08,13,10,49,16.90
2014,08,13,10,50,16.90
2014,08,13,10,51,16.90
2014,08,13,10,52,16.90
2014,08,13,10,53,16.90
2014,08,13,10,54,16.90
2014,08,13,10,55,16.90
2014,08,13,10,56,16.90
2014,08,13,10,57,16.90
2014,08,13,10,58,16.90
2014,08,13,10,59,17.00
2014,08,13,11,00,17.00
2014,08,13,11,01,17.00
2014,08,13,11,02,17.10
2014,08,13,11,03,17.10
2014,08,13,11,04,17.10
2014,08,13,11,05,17.10
2014,08,13,11,06,17.20
2014,08,13,11,07,17.20
2014,08,13,11,08,17.20
2014,08,13,11,09,17.20
2014,08,13,11,10,17.20
2014,08,13,11,11,17.30
2014,08,13,11,12,17.30
2014,08,13,11,13,17.30
2014,08,13,11,14,17.30
2014,08,13,11,15,17.30
2014,08,13,11,16,17.30
2014,08,13,11,17,17.30
2014,08,13,11,18,17.30
2014,08,13,11,19,17.30
2014,08,13,11,20,17.40
2014,08,13,11,21,17.40
2014,08,13,11,22,17.40
2014,08,13,11,23,17.40
2014,08,13,11,24,17.40
2014,08,13,11,25,17.40
2014,08,13,11,26,17.40
2014,08,13,11,27,17.50
2014,08,13,11,28,17.50
2014,08,13,11,29,17.50
2014,08,13,11,30,17.50
2014,08,13,11,31,17.50
2014,08,13,11,32,17.50
2014,08,13,11,33,17.60
2014,08,13,11,34,17.60
2014,08,13,11,35,17.60
2014,08,13,11,36,17.60
2014,08,13,11,37,17.60
2014,08,13,11,38,17.60
2014,08,13,11,39,17.60
2014,08,13,11,40,17.60
2014,08,13,11,41,17.60
2014,08,13,11,42,17.60
2014,08,13,11,43,17.60
2014,08,13,11,44,17.60
2014,08,13,11,45,17.60
2014,08,13,11,46,17.60
2014,08,13,11,47,17.60
2014,08,13,11,48,17.70
2014,08,13,11,49,17.70
2014,08,13,11,50,17.70
2014,08,13,11,51,17.70
2014,08,13,11,52,17.70
2014,08,13,11,53,17.70
2014,08,13,11,54,17.70
2014,08,13,11,55,17.70
2014,08,13,11,56,17.60
2014,08,13,11,57,17.60
2014,08,13,11,58,17.60
2014,08,13,11,59,17.60
2014,08,13,12,00,17.60
2014,08,13,12,01,17.50
2014,08,13,12,02,17.50
2014,08,13,12,03,17.50
2014,08,13,12,04,17.50
2014,08,13,12,05,17.40
2014,08,13,12,06,17.40
2014,08,13,12,07,17.40
2014,08,13,12,08,17.40
2014,08,13,12,09,17.40
2014,08,13,12,10,17.40
2014,08,13,12,11,17.40
2014,08,13,12,12,17.30
2014,08,13,12,13,17.30
2014,08,13,12,14,17.30
2014,08,13,12,15,17.30
2014,08,13,12,16,17.30
2014,08,13,12,17,17.30
2014,08,13,12,18,17.30
2014,08,13,12,19,17.30
2014,08,13,12,20,17.30
2014,08,13,12,21,17.30
2014,08,13,12,22,17.20
2014,08,13,12,23,17.20
2014,08,13,12,24,17.20
2014,08,13,12,25,17.20
2014,08,13,12,26,17.20
2014,08,13,12,27,17.20
2014,08,13,12,28,17.20
2014,08,13,12,29,17.20
2014,08,13,12,30,17.20
2014,08,13,12,31,17.20
2014,08,13,12,32,17.10
2014,08,13,12,33,17.10
2014,08,13,12,34,17.10
2014,08,13,12,35,17.10
2014,08,13,12,36,17.10
2014,08,13,12,37,17.10
2014,08,13,12,38,17.10
2014,08,13,12,39,17.10
2014,08,13,12,40,17.00
2014,08,13,12,41,17.00
2014,08,13,12,42,17.00
2014,08,13,12,43,17.00
2014,08,13,12,44,17.00
2014,08,13,12,45,17.00
2014,08,13,12,46,16.90
2014,08,13,12,47,16.90
2014,08,13,12,48,16.90
2014,08,13,12,49,16.90
2014,08,13,12,50,16.90
2014,08,13,12,51,16.90
2014,08,13,12,52,16.80
2014,08,13,12,53,16.80
2014,08,13,12,54,16.80
2014,08,13,12,55,16.80
2014,08,13,12,56,16.80
2014,08,13,12,57,16.80
2014,08,13,12,58,16.80
2014,08,13,12,59,16.80
2014,08,13,13,00,16.80
2014,08,13,13,01,16.80
2014,08,13,13,02,16.80
2014,08,13,13,03,16.80
2014,08,13,13,04,16.80
2014,08,13,13,05,16.80
2014,08,13,13,06,16.80
2014,08,13,13,07,16.80
2014,08,13,13,08,16.80
2014,08,13,13,09,16.80
2014,08,13,13,10,16.80
2014,08,13,13,11,16.80
2014,08,13,13,12,16.80
2014,08,13,13,13,16.80
2014,08,13,13,14,16.80
2014,08,13,13,15,16.70
2014,08,13,13,16,16.70
2014,08,13,13,17,16.70
2014,08,13,13,18,16.70
2014,08,13,13,19,16.80
2014,08,13,13,20,16.80
2014,08,13,13,21,16.80
2014,08,13,13,22,16.80
2014,08,13,13,23,16.80
2014,08,13,13,24,16.80
2014,08,13,13,25,16.80
2014,08,13,13,26,16.80
2014,08,13,13,27,16.80
2014,08,13,13,28,16.80
2014,08,13,13,29,16.80
2014,08,13,13,30,16.80
2014,08,13,13,31,16.80
2014,08,13,13,32,16.90
2014,08,13,13,33,16.90
2014,08,13,13,34,16.90
2014,08,13,13,35,16.90
2014,08,13,13,36,16.90
2014,08,13,13,37,16.90
2014,08,13,13,38,16.90
2014,08,13,13,39,16.90
2014,08,13,13,40,16.90
2014,08,13,13,41,16.80
2014,08,13,13,42,16.80
2014,08,13,13,43,16.80
2014,08,13,13,44,16.80
2014,08,13,13,45,16.80
2014,08,13,13,46,16.80
2014,08,13,13,47,16.80
2014,08,13,13,48,16.90
2014,08,13,13,49,16.90
2014,08,13,13,50,16.90
2014,08,13,13,51,16.90
2014,08,13,13,52,16.90
2014,08,13,13,53,16.90
2014,08,13,13,54,16.90
2014,08,13,13,55,16.90
2014,08,13,13,56,16.90
2014,08,13,13,57,17.00
2014,08,13,13,58,17.00
2014,08,13,13,59,17.00
2014,08,13,14,00,17.00
2014,08,13,14,01,17.00
2014,08,13,14,02,16.90
2014,08,13,14,03,16.90
2014,08,13,14,04,16.90
2014,08,13,14,05,16.90
2014,08,13,14,06,16.90
2014,08,13,14,07,16.90
2014,08,13,14,08,16.90
2014,08,13,14,09,16.90
2014,08,13,14,10,16.90
2014,08,13,14,11,16.90
2014,08,13,14,12,16.90
2014,08,13,14,13,16.90
2014,08,13,14,14,16.90
2014,08,13,14,15,16.90
2014,08,13,14,16,16.90
2014,08,13,14,17,16.90
2014,08,13,14,18,16.90
2014,08,13,14,19,16.90
2014,08,13,14,20,16.90
2014,08,13,14,21,16.90
2014,08,13,14,22,16.90
2014,08,13,14,23,16.90
2014,08,13,14,24,16.90
2014,08,13,14,25,16.90
2014,08,13,14,26,16.90
2014,08,13,14,27,16.90
2014,08,13,14,28,16.90
2014,08,13,14,29,16.90
2014,08,13,14,30,16.90
2014,08,13,14,31,16.90
2014,08,13,14,32,16.90
2014,08,13,14,33,16.90
2014,08,13,14,34,16.90
2014,08,13,14,35,16.90
2014,08,13,14,36,16.90
2014,08,13,14,37,16.90
2014,08,13,14,38,16.80
2014,08,13,14,39,16.80
2014,08,13,14,40,16.80
2014,08,13,14,41,16.80
2014,08,13,14,42,16.80
2014,08,13,14,43,16.80
2014,08,13,14,44,16.80
2014,08,13,14,45,16.80
2014,08,13,14,46,16.80
2014,08,13,14,47,16.80
2014,08,13,14,48,16.70
2014,08,13,14,49,16.70
2014,08,13,14,50,16.70
2014,08,13,14,51,16.70
2014,08,13,14,52,16.70
2014,08,13,14,53,16.70
2014,08,13,14,54,16.70
2014,08,13,14,55,16.70
2014,08,13,14,56,16.70
2014,08,13,14,57,16.70
2014,08,13,14,58,16.70
2014,08,13,14,59,16.60
2014,08,13,15,00,16.60
2014,08,13,15,01,16.60
2014,08,13,15,02,16.70
2014,08,13,15,03,16.60
2014,08,13,15,04,16.60
2014,08,13,15,05,16.60
2014,08,13,15,06,16.50
2014,08,13,15,07,16.50
2014,08,13,15,08,16.40
2014,08,13,15,09,16.40
2014,08,13,15,10,16.40
2014,08,13,15,11,16.40
2014,08,13,15,12,16.40
2014,08,13,15,13,16.30
2014,08,13,15,14,16.30
2014,08,13,15,15,16.30
2014,08,13,15,16,16.30
2014,08,13,15,17,16.30
2014,08,13,15,18,16.30
2014,08,13,15,19,16.30
2014,08,13,15,20,16.30
2014,08,13,15,21,16.30
2014,08,13,15,22,16.30
2014,08,13,15,23,16.30
2014,08,13,15,24,16.30
2014,08,13,15,25,16.30
2014,08,13,15,26,16.30
2014,08,13,15,27,16.30
2014,08,13,15,28,16.30
2014,08,13,15,29,16.30
2014,08,13,15,30,16.30
2014,08,13,15,31,16.40
2014,08,13,15,32,16.40
2014,08,13,15,33,16.40
2014,08,13,15,34,16.40
2014,08,13,15,35,16.40
2014,08,13,15,36,16.40
2014,08,13,15,37,16.40
2014,08,13,15,38,16.40
2014,08,13,15,39,16.40
2014,08,13,15,40,16.40
2014,08,13,15,41,16.40
2014,08,13,15,42,16.40
2014,08,13,15,43,16.40
2014,08,13,15,44,16.40
2014,08,13,15,45,16.40
2014,08,13,15,46,16.40
2014,08,13,15,47,16.40
2014,08,13,15,48,16.50
2014,08,13,15,49,16.40
2014,08,13,15,50,16.50
2014,08,13,15,51,16.50
2014,08,13,15,52,16.50
2014,08,13,15,53,16.50
2014,08,13,15,54,16.50
2014,08,13,15,55,16.50
2014,08,13,15,56,16.50
2014,08,13,15,57,16.50
2014,08,13,15,58,16.50
2014,08,13,15,59,16.50
2014,08,13,16,00,16.50
2014,08,13,16,01,16.40
2014,08,13,16,02,16.40
2014,08,13,16,03,16.40
2014,08,13,16,04,16.40
2014,08,13,16,05,16.40
2014,08,13,16,06,16.50
2014,08,13,16,07,16.50
2014,08,13,16,08,16.40
2014,08,13,16,09,16.50
2014,08,13,16,10,16.50
2014,08,13,16,11,16.50
2014,08,13,16,12,16.50
2014,08,13,16,13,16.50
2014,08,13,16,14,16.50
2014,08,13,16,15,16.50
2014,08,13,16,16,16.60
2014,08,13,16,17,16.60
2014,08,13,16,18,16.60
2014,08,13,16,19,16.60
2014,08,13,16,20,16.60
2014,08,13,16,21,16.60
2014,08,13,16,22,16.60
2014,08,13,16,23,16.60
2014,08,13,16,24,16.60
2014,08,13,16,25,16.60
2014,08,13,16,26,16.60
2014,08,13,16,27,16.60
2014,08,13,16,28,16.60
2014,08,13,16,29,16.60
2014,08,13,16,30,16.60
2014,08,13,16,31,16.60
2014,08,13,16,32,16.60
2014,08,13,16,33,16.60
2014,08,13,16,34,16.60
2014,08,13,16,35,16.60
2014,08,13,16,36,16.60
2014,08,13,16,37,16.60
2014,08,13,16,38,16.60
2014,08,13,16,39,16.60
2014,08,13,16,40,16.60
2014,08,13,16,41,16.60
2014,08,13,16,42,16.60
2014,08,13,16,43,16.60
2014,08,13,16,44,16.60
2014,08,13,16,45,16.60
2014,08,13,16,46,16.60
2014,08,13,16,47,16.60
2014,08,13,16,48,16.60
2014,08,13,16,49,16.60
2014,08,13,16,50,16.60
2014,08,13,16,51,16.70
2014,08,13,16,52,16.70
2014,08,13,16,53,16.70
2014,08,13,16,54,16.60
2014,08,13,16,55,16.60
2014,08,13,16,56,16.60
2014,08,13,16,57,16.60
2014,08,13,16,58,16.60
2014,08,13,16,59,16.60
2014,08,13,17,00,16.60
2014,08,13,17,01,16.70
2014,08,13,17,02,16.70
2014,08,13,17,03,16.60
2014,08,13,17,04,16.70
2014,08,13,17,05,16.60
2014,08,13,17,06,16.70
2014,08,13,17,07,16.70
2014,08,13,17,08,16.70
2014,08,13,17,09,16.70
2014,08,13,17,10,16.70
2014,08,13,17,11,16.70
2014,08,13,17,12,16.70
2014,08,13,17,13,16.70
2014,08,13,17,14,16.70
2014,08,13,17,15,16.70
2014,08,13,17,16,16.70
2014,08,13,17,17,16.70
2014,08,13,17,18,16.70
2014,08,13,17,19,16.70